{"data":{"norad_id":58415,"epoch":"2026-09-20T15:51:55.511424Z","epoch_age_seconds":132797,"freshness":"FRESH","line1":"1 58415U 23180P   26263.66105916  .00000241  00000+0  18273-4 0  9991","line2":"2 58415  43.0031  31.4862 0000773 275.5479  84.5284 15.27579761157448","mean_motion":15.27579761,"eccentricity":7.73e-5,"inclination_deg":43.0031,"raan_deg":31.4862,"arg_perigee_deg":275.5479,"mean_anomaly_deg":84.5284,"bstar":1.8273e-5,"rev_number":15744,"period_min":94.266763462311,"perigee_km":482.51944195118,"apogee_km":483.58018143227,"semimajor_km":6861.1868116917,"source":"CELESTRAK","updated_at":"2026-09-21T09:00:33.872592Z"}}